This is the latest recevied weather packets stored in our database for station/object OM3WYM-13. If no packets are shown the sender has not sent any weather packets the latest 10 day(s).
| Time | Temp. | Humidity | Pressure | Rain* | Wind** | Luminosity | Snow |
|---|---|---|---|---|---|---|---|
| 1777444208 | 4.44° C | 51% | 1024 hPa | - | - | - | - |
| 1777443608 | 3.33° C | 52% | 1024.1 hPa | - | - | - | - |
| 1777443008 | 2.78° C | 54% | 1024.3 hPa | - | - | - | - |
| 1777442408 | 2.22° C | 55% | 1024.4 hPa | - | - | - | - |
| 1777441808 | 1.67° C | 57% | 1024.4 hPa | - | - | - | - |
| 1777441208 | 0.56° C | 61% | 1024.5 hPa | - | - | - | - |
| 1777440608 | 0° C | 63% | 1024.5 hPa | - | - | - | - |
| 1777440008 | -0.56° C | 65% | 1024.7 hPa | - | - | - | - |
| 1777439408 | -1.11° C | 65% | 1024.7 hPa | - | - | - | - |
| 1777438808 | -1.11° C | 67% | 1024.9 hPa | - | - | - | - |
| 1777438208 | -1.67° C | 68% | 1025 hPa | - | - | - | - |
| 1777437608 | -2.22° C | 70% | 1025 hPa | - | - | - | - |
| 1777437008 | -2.78° C | 71% | 1025 hPa | - | - | - | - |
| 1777436408 | -2.78° C | 72% | 1025 hPa | - | - | - | - |
| 1777435808 | -3.33° C | 72% | 1025 hPa | - | - | - | - |
| 1777435208 | -3.33° C | 72% | 1025 hPa | - | - | - | - |
| 1777434608 | -3.33° C | 72% | 1025 hPa | - | - | - | - |
| 1777434008 | -3.33° C | 72% | 1024.9 hPa | - | - | - | - |
| 1777433408 | -3.33° C | 71% | 1024.9 hPa | - | - | - | - |
| 1777432808 | -3.33° C | 71% | 1024.8 hPa | - | - | - | - |
| 1777432208 | -3.33° C | 71% | 1024.7 hPa | - | - | - | - |
| 1777431608 | -3.33° C | 71% | 1024.8 hPa | - | - | - | - |
| 1777431008 | -2.78° C | 70% | 1024.8 hPa | - | - | - | - |
| 1777430408 | -2.78° C | 69% | 1024.7 hPa | - | - | - | - |
| 1777429808 | -2.78° C | 70% | 1024.7 hPa | - | - | - | - |
* Rain since midnight (hover to see other rain measurements)
** Current wind speed in m/s (hover to see current wind gust speed)